Time,TemperatureF,DewpointF,PressureIn,WindDirection,WindDirectionDegrees,WindSpeedMPH,WindSpeedGustMPH,Humidity,HourlyPrecipIn,Conditions,Clouds,dailyrainin,SoftwareType,DateUTC
2013-03-30 00:04:00,66.0,0.0,30.05,NW,321,9.0,16.0,31,-99.99,,,-99.99,,2013-03-30 07:04:00,
2013-03-30 00:12:00,66.0,0.0,30.05,NW,317,12.0,17.0,31,-99.99,,,-99.99,,2013-03-30 07:12:00,
2013-03-30 00:20:00,66.0,0.0,30.05,NW,313,9.0,18.0,32,-99.99,,,-99.99,,2013-03-30 07:20:00,
2013-03-30 00:28:00,66.0,0.0,30.05,NW,318,12.0,17.0,29,-99.99,,,-99.99,,2013-03-30 07:28:00,
2013-03-30 00:36:00,66.0,0.0,30.05,NW,309,14.0,18.0,31,-99.99,,,-99.99,,2013-03-30 07:36:00,
2013-03-30 00:44:00,66.0,0.0,30.05,NW,313,14.0,18.0,29,-99.99,,,-99.99,,2013-03-30 07:44:00,
2013-03-30 00:52:00,65.0,0.0,30.05,WNW,296,12.0,16.0,30,-99.99,,,-99.99,,2013-03-30 07:52:00,
2013-03-30 01:00:00,65.0,0.0,30.05,WNW,282,12.0,17.0,30,-99.99,,,-99.99,,2013-03-30 08:00:00,
2013-03-30 01:08:00,65.0,0.0,30.05,NW,311,10.0,16.0,29,-99.99,,,-99.99,,2013-03-30 08:08:00,
2013-03-30 01:16:00,64.0,0.0,30.05,NW,315,9.0,15.0,29,-99.99,,,-99.99,,2013-03-30 08:16:00,
2013-03-30 01:24:00,64.0,0.0,30.05,NW,318,8.0,13.0,28,-99.99,,,-99.99,,2013-03-30 08:24:00,
2013-03-30 01:32:00,64.0,0.0,30.05,WNW,301,10.0,14.0,27,-99.99,,,-99.99,,2013-03-30 08:32:00,
2013-03-30 01:40:00,64.0,0.0,30.05,NW,312,13.0,14.0,27,-99.99,,,-99.99,,2013-03-30 08:40:00,
2013-03-30 01:48:00,64.0,0.0,30.05,NW,318,10.0,15.0,25,-99.99,,,-99.99,,2013-03-30 08:48:00,
2013-03-30 01:56:00,65.0,0.0,30.05,NW,319,14.0,16.0,26,-99.99,,,-99.99,,2013-03-30 08:56:00,
2013-03-30 02:04:00,65.0,0.0,30.05,NW,308,12.0,20.0,25,-99.99,,,-99.99,,2013-03-30 09:04:00,
2013-03-30 02:12:00,65.0,0.0,30.05,NW,308,12.0,20.0,23,-99.99,,,-99.99,,2013-03-30 09:12:00,
2013-03-30 02:20:00,65.0,0.0,30.05,WNW,299,13.0,20.0,22,-99.99,,,-99.99,,2013-03-30 09:20:00,
2013-03-30 02:28:00,66.0,0.0,30.05,NW,310,9.0,17.0,24,-99.99,,,-99.99,,2013-03-30 09:28:00,
2013-03-30 02:36:00,66.0,0.0,30.05,NW,314,13.0,21.0,23,-99.99,,,-99.99,,2013-03-30 09:36:00,
2013-03-30 02:40:00,66.0,0.0,30.05,NW,309,9.0,21.0,25,-99.99,,,-99.99,,2013-03-30 09:40:00,
2013-03-30 02:48:00,65.0,0.0,30.05,NW,312,7.0,21.0,23,-99.99,,,-99.99,,2013-03-30 09:48:00,
2013-03-30 02:56:00,65.0,0.0,30.05,NW,304,8.0,15.0,25,-99.99,,,-99.99,,2013-03-30 09:56:00,
2013-03-30 03:04:00,65.0,0.0,30.05,NW,310,6.0,12.0,23,-99.99,,,-99.99,,2013-03-30 10:04:00,
2013-03-30 03:12:00,65.0,0.0,30.05,NW,312,10.0,14.0,25,-99.99,,,-99.99,,2013-03-30 10:12:00,
2013-03-30 03:20:00,65.0,0.0,30.05,NW,312,7.0,14.0,26,-99.99,,,-99.99,,2013-03-30 10:20:00,
2013-03-30 03:28:00,64.0,0.0,30.05,NW,316,6.0,8.0,23,-99.99,,,-99.99,,2013-03-30 10:28:00,
2013-03-30 03:36:00,64.0,0.0,30.05,NW,313,8.0,9.0,24,-99.99,,,-99.99,,2013-03-30 10:36:00,
2013-03-30 03:44:00,64.0,0.0,30.04,WNW,287,8.0,13.0,26,-99.99,,,-99.99,,2013-03-30 10:44:00,
2013-03-30 03:52:00,64.0,0.0,30.04,NW,314,15.0,18.0,25,-99.99,,,-99.99,,2013-03-30 10:52:00,
2013-03-30 04:01:00,64.0,0.0,30.04,NW,305,12.0,18.0,25,-99.99,,,-99.99,,2013-03-30 11:01:00,
2013-03-30 04:08:00,64.0,0.0,30.04,NW,311,8.0,16.0,24,-99.99,,,-99.99,,2013-03-30 11:08:00,
2013-03-30 04:16:00,63.0,0.0,30.03,NW,311,10.0,13.0,26,-99.99,,,-99.99,,2013-03-30 11:16:00,
2013-03-30 04:24:00,63.0,0.0,30.03,WNW,302,7.0,13.0,23,-99.99,,,-99.99,,2013-03-30 11:24:00,
2013-03-30 04:32:00,63.0,0.0,30.03,NW,307,7.0,14.0,26,-99.99,,,-99.99,,2013-03-30 11:32:00,
2013-03-30 04:40:00,63.0,0.0,30.03,NW,315,9.0,12.0,24,-99.99,,,-99.99,,2013-03-30 11:40:00,
2013-03-30 04:48:00,64.0,0.0,30.03,NW,311,6.0,14.0,23,-99.99,,,-99.99,,2013-03-30 11:48:00,
2013-03-30 04:56:00,64.0,0.0,30.03,NW,313,7.0,10.0,23,-99.99,,,-99.99,,2013-03-30 11:56:00,
2013-03-30 05:04:00,65.0,0.0,30.03,NW,306,12.0,14.0,26,-99.99,,,-99.99,,2013-03-30 12:04:00,
2013-03-30 05:12:00,65.0,0.0,30.03,NW,314,9.0,14.0,24,-99.99,,,-99.99,,2013-03-30 12:12:00,
2013-03-30 05:20:00,65.0,0.0,30.03,WNW,302,10.0,16.0,22,-99.99,,,-99.99,,2013-03-30 12:20:00,
2013-03-30 05:28:00,65.0,0.0,30.03,NW,324,16.0,18.0,23,-99.99,,,-99.99,,2013-03-30 12:28:00,
2013-03-30 05:36:00,65.0,0.0,30.03,NW,308,8.0,18.0,27,-99.99,,,-99.99,,2013-03-30 12:36:00,
2013-03-30 05:44:00,64.0,0.0,30.03,NW,313,10.0,15.0,24,-99.99,,,-99.99,,2013-03-30 12:44:00,
2013-03-30 05:52:00,64.0,0.0,30.03,NW,308,13.0,18.0,24,-99.99,,,-99.99,,2013-03-30 12:52:00,
2013-03-30 06:00:00,64.0,0.0,30.03,NW,321,13.0,18.0,24,-99.99,,,-99.99,,2013-03-30 13:00:00,
2013-03-30 06:08:00,64.0,0.0,30.04,NW,321,5.0,16.0,27,-99.99,,,-99.99,,2013-03-30 13:08:00,
2013-03-30 06:16:00,63.0,0.0,30.04,NNE,33,0.0,8.0,26,-99.99,,,-99.99,,2013-03-30 13:16:00,
2013-03-30 06:24:00,63.0,0.0,30.04,South,182,0.0,12.0,27,-99.99,,,-99.99,,2013-03-30 13:24:00,
2013-03-30 06:32:00,63.0,0.0,30.04,NNW,327,5.0,9.0,26,-99.99,,,-99.99,,2013-03-30 13:32:00,
2013-03-30 06:40:00,64.0,0.0,30.04,NW,318,7.0,12.0,28,-99.99,,,-99.99,,2013-03-30 13:40:00,
2013-03-30 06:48:00,63.0,0.0,30.05,NW,324,2.0,12.0,28,-99.99,,,-99.99,,2013-03-30 13:48:00,
2013-03-30 06:56:00,63.0,0.0,30.05,NNW,327,0.0,3.0,26,-99.99,,,-99.99,,2013-03-30 13:56:00,
2013-03-30 07:04:00,63.0,0.0,30.05,NW,322,5.0,5.0,27,-99.99,,,-99.99,,2013-03-30 14:04:00,
2013-03-30 07:12:00,63.0,0.0,30.05,NNW,328,2.0,5.0,29,-99.99,,,-99.99,,2013-03-30 14:12:00,
2013-03-30 07:20:00,63.0,0.0,30.05,NW,326,5.0,7.0,30,-99.99,,,-99.99,,2013-03-30 14:20:00,
2013-03-30 07:28:00,63.0,0.0,30.05,NW,317,5.0,7.0,27,-99.99,,,-99.99,,2013-03-30 14:28:00,
2013-03-30 07:36:00,63.0,0.0,30.05,NNW,331,2.0,6.0,27,-99.99,,,-99.99,,2013-03-30 14:36:00,
2013-03-30 07:44:00,63.0,0.0,30.06,NNW,332,2.0,6.0,27,-99.99,,,-99.99,,2013-03-30 14:44:00,
2013-03-30 07:52:00,64.0,0.0,30.06,NNW,331,1.0,6.0,28,-99.99,,,-99.99,,2013-03-30 14:52:00,
2013-03-30 08:00:00,64.0,0.0,30.06,NW,326,3.0,5.0,28,-99.99,,,-99.99,,2013-03-30 15:00:00,
2013-03-30 08:08:00,65.0,0.0,30.06,NW,326,5.0,6.0,28,-99.99,,,-99.99,,2013-03-30 15:08:00,
2013-03-30 08:16:00,65.0,0.0,30.06,NW,325,3.0,9.0,26,-99.99,,,-99.99,,2013-03-30 15:16:00,
2013-03-30 08:24:00,66.0,0.0,30.06,NW,317,5.0,12.0,27,-99.99,,,-99.99,,2013-03-30 15:24:00,
2013-03-30 08:32:00,68.0,0.0,30.06,NW,322,9.0,12.0,27,-99.99,,,-99.99,,2013-03-30 15:32:00,
2013-03-30 08:40:00,69.0,0.0,30.07,NW,317,3.0,12.0,22,-99.99,,,-99.99,,2013-03-30 15:40:00,
2013-03-30 08:48:00,69.0,0.0,30.07,NW,324,2.0,9.0,21,-99.99,,,-99.99,,2013-03-30 15:48:00,
2013-03-30 08:56:00,68.0,0.0,30.07,NW,320,3.0,6.0,23,-99.99,,,-99.99,,2013-03-30 15:56:00,
2013-03-30 09:04:00,69.0,0.0,30.06,NW,319,5.0,8.0,24,-99.99,,,-99.99,,2013-03-30 16:04:00,
2013-03-30 09:12:00,71.0,0.0,30.06,NW,310,7.0,9.0,25,-99.99,,,-99.99,,2013-03-30 16:12:00,
2013-03-30 09:20:00,72.0,0.0,30.06,NW,316,9.0,9.0,20,-99.99,,,-99.99,,2013-03-30 16:20:00,
2013-03-30 09:28:00,72.0,0.0,30.07,NW,322,5.0,9.0,20,-99.99,,,-99.99,,2013-03-30 16:28:00,
2013-03-30 09:36:00,74.0,0.0,30.07,WNW,296,8.0,12.0,22,-99.99,,,-99.99,,2013-03-30 16:36:00,
2013-03-30 09:44:00,74.0,0.0,30.07,NW,311,8.0,14.0,21,-99.99,,,-99.99,,2013-03-30 16:44:00,
2013-03-30 09:52:00,75.0,0.0,30.07,NW,323,3.0,14.0,17,-99.99,,,-99.99,,2013-03-30 16:52:00,
2013-03-30 10:00:00,75.0,0.0,30.07,NNW,333,6.0,14.0,17,-99.99,,,-99.99,,2013-03-30 17:00:00,
2013-03-30 10:08:00,76.0,0.0,30.07,NW,307,9.0,10.0,18,-99.99,,,-99.99,,2013-03-30 17:08:00,
2013-03-30 10:16:00,75.0,0.0,30.07,NW,319,8.0,10.0,17,-99.99,,,-99.99,,2013-03-30 17:16:00,
2013-03-30 10:24:00,76.0,0.0,30.07,NW,307,6.0,12.0,18,-99.99,,,-99.99,,2013-03-30 17:24:00,
2013-03-30 10:32:00,76.0,0.0,30.07,NW,309,7.0,14.0,16,-99.99,,,-99.99,,2013-03-30 17:32:00,
2013-03-30 10:40:00,77.0,0.0,30.07,NW,315,7.0,10.0,18,-99.99,,,-99.99,,2013-03-30 17:40:00,
2013-03-30 10:48:00,76.0,0.0,30.07,NW,316,3.0,10.0,15,-99.99,,,-99.99,,2013-03-30 17:48:00,
2013-03-30 10:56:00,75.0,0.0,30.07,NW,317,7.0,16.0,17,-99.99,,,-99.99,,2013-03-30 17:56:00,
2013-03-30 11:04:00,75.0,0.0,30.07,NW,315,10.0,15.0,15,-99.99,,,-99.99,,2013-03-30 18:04:00,
2013-03-30 11:12:00,75.0,0.0,30.07,NW,320,7.0,16.0,18,-99.99,,,-99.99,,2013-03-30 18:12:00,
2013-03-30 11:20:00,76.0,0.0,30.07,NW,316,12.0,17.0,18,-99.99,,,-99.99,,2013-03-30 18:20:00,
2013-03-30 11:28:00,78.0,0.0,30.07,NW,318,8.0,16.0,13,-99.99,,,-99.99,,2013-03-30 18:28:00,
2013-03-30 11:36:00,77.0,0.0,30.07,NW,314,12.0,16.0,12,-99.99,,,-99.99,,2013-03-30 18:36:00,
2013-03-30 11:44:00,77.0,0.0,30.07,NW,315,12.0,16.0,13,-99.99,,,-99.99,,2013-03-30 18:44:00,
2013-03-30 11:52:00,77.0,0.0,30.07,NW,322,15.0,15.0,14,-99.99,,,-99.99,,2013-03-30 18:52:00,
2013-03-30 12:00:00,78.0,0.0,30.07,NW,313,8.0,16.0,12,-99.99,,,-99.99,,2013-03-30 19:00:00,
2013-03-30 12:08:00,79.0,0.0,30.07,NW,318,1.0,15.0,13,-99.99,,,-99.99,,2013-03-30 19:08:00,
2013-03-30 12:16:00,80.0,0.0,30.06,WNW,301,3.0,17.0,14,-99.99,,,-99.99,,2013-03-30 19:16:00,
2013-03-30 12:24:00,80.0,0.0,30.06,NW,313,2.0,17.0,13,-99.99,,,-99.99,,2013-03-30 19:24:00,
2013-03-30 12:32:00,80.0,0.0,30.06,NNW,327,13.0,18.0,14,-99.99,,,-99.99,,2013-03-30 19:32:00,
2013-03-30 12:40:00,80.0,0.0,30.06,NW,326,9.0,17.0,10,-99.99,,,-99.99,,2013-03-30 19:40:00,
2013-03-30 12:48:00,79.0,0.0,30.05,NNW,330,5.0,14.0,11,-99.99,,,-99.99,,2013-03-30 19:48:00,
2013-03-30 12:56:00,80.0,0.0,30.05,NW,321,13.0,15.0,13,-99.99,,,-99.99,,2013-03-30 19:56:00,
2013-03-30 13:04:00,79.0,0.0,30.05,NW,308,9.0,18.0,10,-99.99,,,-99.99,,2013-03-30 20:04:00,
2013-03-30 13:12:00,80.0,0.0,30.05,NW,313,7.0,18.0,10,-99.99,,,-99.99,,2013-03-30 20:12:00,
2013-03-30 13:20:00,79.0,0.0,30.04,NW,317,6.0,13.0,12,-99.99,,,-99.99,,2013-03-30 20:20:00,
2013-03-30 13:28:00,81.0,0.0,30.04,NNW,332,0.0,13.0,14,-99.99,,,-99.99,,2013-03-30 20:28:00,
2013-03-30 13:36:00,81.0,0.0,30.03,NW,313,10.0,13.0,15,-99.99,,,-99.99,,2013-03-30 20:36:00,
2013-03-30 13:44:00,80.0,0.0,30.03,NW,315,14.0,18.0,12,-99.99,,,-99.99,,2013-03-30 20:44:00,
2013-03-30 13:52:00,81.0,0.0,30.02,NW,314,8.0,18.0,14,-99.99,,,-99.99,,2013-03-30 20:52:00,
2013-03-30 14:00:00,81.0,0.0,30.02,NW,317,5.0,17.0,14,-99.99,,,-99.99,,2013-03-30 21:00:00,
2013-03-30 14:08:00,82.0,0.0,30.02,NW,325,9.0,18.0,16,-99.99,,,-99.99,,2013-03-30 21:08:00,
2013-03-30 14:16:00,83.0,0.0,30.02,NW,316,9.0,21.0,13,-99.99,,,-99.99,,2013-03-30 21:16:00,
2013-03-30 14:24:00,83.0,0.0,30.01,WNW,301,5.0,16.0,14,-99.99,,,-99.99,,2013-03-30 21:24:00,
2013-03-30 14:32:00,82.0,0.0,30.01,NNW,328,2.0,23.0,16,-99.99,,,-99.99,,2013-03-30 21:32:00,
2013-03-30 14:40:00,83.0,0.0,30.00,NW,317,14.0,17.0,14,-99.99,,,-99.99,,2013-03-30 21:40:00,
2013-03-30 14:48:00,82.0,0.0,30.00,NW,312,9.0,20.0,16,-99.99,,,-99.99,,2013-03-30 21:48:00,
2013-03-30 14:56:00,82.0,0.0,29.99,NNW,328,14.0,18.0,15,-99.99,,,-99.99,,2013-03-30 21:56:00,
2013-03-30 15:04:00,83.0,0.0,29.99,NW,314,14.0,22.0,15,-99.99,,,-99.99,,2013-03-30 22:04:00,
2013-03-30 15:12:00,81.0,0.0,29.99,NW,316,3.0,22.0,16,-99.99,,,-99.99,,2013-03-30 22:12:00,
2013-03-30 15:20:00,82.0,0.0,29.99,NW,323,16.0,20.0,17,-99.99,,,-99.99,,2013-03-30 22:20:00,
2013-03-30 15:28:00,82.0,0.0,29.98,NW,305,20.0,28.0,14,-99.99,,,-99.99,,2013-03-30 22:28:00,
2013-03-30 15:36:00,82.0,0.0,29.98,NW,315,7.0,28.0,15,-99.99,,,-99.99,,2013-03-30 22:36:00,
2013-03-30 15:44:00,81.0,0.0,29.98,NW,316,0.0,23.0,14,-99.99,,,-99.99,,2013-03-30 22:44:00,
2013-03-30 15:52:00,81.0,0.0,29.97,NNW,329,13.0,18.0,14,-99.99,,,-99.99,,2013-03-30 22:52:00,
2013-03-30 16:00:00,82.0,0.0,29.97,NW,326,17.0,22.0,15,-99.99,,,-99.99,,2013-03-30 23:00:00,
2013-03-30 16:08:00,82.0,0.0,29.97,NW,317,21.0,24.0,13,-99.99,,,-99.99,,2013-03-30 23:08:00,
2013-03-30 16:16:00,82.0,0.0,29.97,NW,316,20.0,24.0,14,-99.99,,,-99.99,,2013-03-30 23:16:00,
2013-03-30 16:24:00,81.0,0.0,29.97,NW,322,13.0,22.0,15,-99.99,,,-99.99,,2013-03-30 23:24:00,
2013-03-30 16:32:00,81.0,0.0,29.96,NW,322,12.0,17.0,16,-99.99,,,-99.99,,2013-03-30 23:32:00,
2013-03-30 16:40:00,80.0,0.0,29.96,NW,320,18.0,22.0,16,-99.99,,,-99.99,,2013-03-30 23:40:00,
2013-03-30 16:48:00,80.0,0.0,29.96,NW,318,7.0,22.0,14,-99.99,,,-99.99,,2013-03-30 23:48:00,
2013-03-30 16:56:00,80.0,0.0,29.96,WNW,301,14.0,17.0,15,-99.99,,,-99.99,,2013-03-30 23:56:00,
2013-03-30 17:04:00,79.0,0.0,29.96,NW,316,7.0,17.0,16,-99.99,,,-99.99,,2013-03-31 00:04:00,
2013-03-30 17:12:00,79.0,0.0,29.95,NW,318,13.0,15.0,19,-99.99,,,-99.99,,2013-03-31 00:12:00,
2013-03-30 17:20:00,80.0,0.0,29.95,NW,305,14.0,18.0,16,-99.99,,,-99.99,,2013-03-31 00:20:00,
2013-03-30 17:28:00,79.0,0.0,29.95,NW,321,7.0,16.0,17,-99.99,,,-99.99,,2013-03-31 00:28:00,
2013-03-30 17:36:00,79.0,0.0,29.95,NW,325,3.0,10.0,17,-99.99,,,-99.99,,2013-03-31 00:36:00,
2013-03-30 17:44:00,78.0,0.0,29.95,NW,310,5.0,8.0,16,-99.99,,,-99.99,,2013-03-31 00:44:00,
2013-03-30 17:52:00,79.0,0.0,29.95,NW,323,12.0,18.0,14,-99.99,,,-99.99,,2013-03-31 00:52:00,
2013-03-30 18:00:00,79.0,0.0,29.95,NW,326,5.0,18.0,17,-99.99,,,-99.99,,2013-03-31 01:00:00,
2013-03-30 18:08:00,79.0,0.0,29.95,NW,320,9.0,16.0,18,-99.99,,,-99.99,,2013-03-31 01:08:00,
2013-03-30 18:20:00,78.0,0.0,29.95,NW,308,10.0,16.0,15,-99.99,,,-99.99,,2013-03-31 01:20:00,
2013-03-30 18:28:00,78.0,0.0,29.95,NW,322,8.0,17.0,17,-99.99,,,-99.99,,2013-03-31 01:28:00,
2013-03-30 18:36:00,78.0,0.0,29.95,NW,309,9.0,20.0,17,-99.99,,,-99.99,,2013-03-31 01:36:00,
2013-03-30 18:44:00,77.0,0.0,29.95,NW,311,14.0,21.0,17,-99.99,,,-99.99,,2013-03-31 01:44:00,
2013-03-30 18:52:00,76.0,0.0,29.95,NW,319,14.0,22.0,20,-99.99,,,-99.99,,2013-03-31 01:52:00,
2013-03-30 19:00:00,76.0,0.0,29.95,NW,319,14.0,22.0,20,-99.99,,,-99.99,,2013-03-31 02:00:00,
2013-03-30 19:08:00,75.0,0.0,29.95,NW,323,17.0,18.0,22,-99.99,,,-99.99,,2013-03-31 02:08:00,
2013-03-30 19:16:00,75.0,0.0,29.95,West,271,10.0,20.0,19,-99.99,,,-99.99,,2013-03-31 02:16:00,
2013-03-30 19:24:00,74.0,0.0,29.95,NW,318,10.0,18.0,21,-99.99,,,-99.99,,2013-03-31 02:24:00,
2013-03-30 19:32:00,73.0,0.0,29.95,NW,318,6.0,20.0,20,-99.99,,,-99.99,,2013-03-31 02:32:00,
2013-03-30 19:40:00,73.0,0.0,29.95,NW,315,9.0,20.0,23,-99.99,,,-99.99,,2013-03-31 02:40:00,
2013-03-30 19:48:00,72.0,0.0,29.95,NW,317,15.0,21.0,24,-99.99,,,-99.99,,2013-03-31 02:48:00,
2013-03-30 19:56:00,72.0,0.0,29.95,NW,311,13.0,22.0,25,-99.99,,,-99.99,,2013-03-31 02:56:00,
2013-03-30 20:04:00,71.0,0.0,29.95,WNW,299,16.0,22.0,29,-99.99,,,-99.99,,2013-03-31 03:04:00,
2013-03-30 20:12:00,70.0,0.0,29.95,WNW,303,18.0,23.0,27,-99.99,,,-99.99,,2013-03-31 03:12:00,
2013-03-30 20:20:00,70.0,0.0,29.95,NW,304,22.0,24.0,26,-99.99,,,-99.99,,2013-03-31 03:20:00,
2013-03-30 20:28:00,70.0,0.0,29.95,NW,316,16.0,24.0,27,-99.99,,,-99.99,,2013-03-31 03:28:00,
2013-03-30 20:36:00,69.0,0.0,29.96,NW,312,13.0,24.0,28,-99.99,,,-99.99,,2013-03-31 03:36:00,
2013-03-30 20:44:00,69.0,0.0,29.96,NW,312,20.0,25.0,32,-99.99,,,-99.99,,2013-03-31 03:44:00,
2013-03-30 20:52:00,68.0,0.0,29.97,NNW,329,18.0,26.0,31,-99.99,,,-99.99,,2013-03-31 03:52:00,
2013-03-30 21:00:00,68.0,0.0,29.97,WNW,290,22.0,26.0,30,-99.99,,,-99.99,,2013-03-31 04:00:00,
2013-03-30 21:04:00,68.0,0.0,29.97,NW,308,15.0,25.0,33,-99.99,,,-99.99,,2013-03-31 04:04:00,
2013-03-30 21:12:00,68.0,0.0,29.98,NW,313,15.0,25.0,33,-99.99,,,-99.99,,2013-03-31 04:12:00,
2013-03-30 21:20:00,67.0,0.0,29.98,NW,315,15.0,24.0,33,-99.99,,,-99.99,,2013-03-31 04:20:00,
2013-03-30 21:28:00,67.0,0.0,29.98,NW,315,17.0,24.0,36,-99.99,,,-99.99,,2013-03-31 04:28:00,
2013-03-30 21:32:00,67.0,0.0,29.98,NW,314,18.0,24.0,33,-99.99,,,-99.99,,2013-03-31 04:32:00,
2013-03-30 21:40:00,66.0,0.0,29.98,NW,316,21.0,24.0,35,-99.99,,,-99.99,,2013-03-31 04:40:00,
2013-03-30 21:44:00,66.0,0.0,29.98,NW,312,17.0,24.0,34,-99.99,,,-99.99,,2013-03-31 04:44:00,
2013-03-30 21:52:00,66.0,0.0,29.97,WNW,294,18.0,26.0,35,-99.99,,,-99.99,,2013-03-31 04:52:00,
2013-03-30 22:00:00,66.0,0.0,29.98,NW,308,22.0,26.0,36,-99.99,,,-99.99,,2013-03-31 05:00:00,
2013-03-30 22:08:00,65.0,0.0,29.98,WNW,301,17.0,25.0,38,-99.99,,,-99.99,,2013-03-31 05:08:00,
2013-03-30 22:16:00,65.0,0.0,29.98,NW,316,17.0,24.0,37,-99.99,,,-99.99,,2013-03-31 05:16:00,
2013-03-30 22:24:00,65.0,0.0,29.98,NW,305,20.0,23.0,35,-99.99,,,-99.99,,2013-03-31 05:24:00,
2013-03-30 22:32:00,64.0,0.0,29.98,WNW,302,20.0,24.0,35,-99.99,,,-99.99,,2013-03-31 05:32:00,
2013-03-30 22:40:00,64.0,0.0,29.99,NW,306,21.0,24.0,41,-99.99,,,-99.99,,2013-03-31 05:40:00,
2013-03-30 22:48:00,64.0,0.0,29.99,WNW,298,12.0,25.0,36,-99.99,,,-99.99,,2013-03-31 05:48:00,
2013-03-30 22:56:00,64.0,0.0,29.99,NW,304,17.0,24.0,36,-99.99,,,-99.99,,2013-03-31 05:56:00,
2013-03-30 23:04:00,64.0,0.0,29.99,NW,314,16.0,24.0,36,-99.99,,,-99.99,,2013-03-31 06:04:00,
2013-03-30 23:12:00,64.0,0.0,29.99,WNW,293,15.0,24.0,38,-99.99,,,-99.99,,2013-03-31 06:12:00,
2013-03-30 23:20:00,64.0,0.0,29.99,NW,311,18.0,23.0,36,-99.99,,,-99.99,,2013-03-31 06:20:00,
2013-03-30 23:28:00,64.0,0.0,29.99,NW,313,21.0,22.0,36,-99.99,,,-99.99,,2013-03-31 06:28:00,
2013-03-30 23:36:00,64.0,0.0,29.99,NW,312,17.0,23.0,40,-99.99,,,-99.99,,2013-03-31 06:36:00,
2013-03-30 23:44:00,63.0,0.0,29.99,WNW,301,20.0,23.0,39,-99.99,,,-99.99,,2013-03-31 06:44:00,
2013-03-30 23:52:00,63.0,0.0,29.99,NW,314,12.0,24.0,39,-99.99,,,-99.99,,2013-03-31 06:52:00,